Temp
-7 -7 -7 -7 -7 -7 -7 -6 -6 -7 -7 -7 -6 -7 -6 -6 -6 -6 -7 -7 -6 -6 -6 -6 -7 -7 -7 -7 -6 -6 -6 -6 -6 -6 -6 -6 -6 -5 -5 -5 -4 -4 -4 -4 -4 -4 -4 -4 -4
-8 -8 -8 -7 -8 -7 -7 -7 -7 -7 -7 -7 -6 -6 -6 -7 -7 -6 -7 -7 -7 -6 -6 -6 -6 -6 -7 -7 -7 -7 -7 -7 -7 -6 -6 -6 -6 -6 -6 -5 -5 -5 -4 -4 -4 -4 -4 -4 -4
-8 -8 -8 -8 -8 -7 -7 -7 -7 -8 -7 -7 -7 -6 -7 -7 -7 -7 -7 -7 -7 -7 -7 -7 -7 -7 -7 -7 -7 -7 -7 -7 -7 -7 -7 -7 -6 -6 -6 -6 -6 -5 -5 -5 -4 -4 -4 -4 -4
-9 -8 -8 -8 -8 -7 -7 -7 -8 -8 -7 -7 -7 -6 -7 -7 -7 -6 -7 -7 -7 -7 -7 -7 -7 -7 -7 -7 -7 -7 -7 -7 -7 -7 -7 -7 -7 -7 -6 -6 -6 -6 -5 -5 -5 -4 -4 -4 -4
-9 -9 -9 -8 -8 -8 -7 -7 -8 -7 -7 -7 -6 -7 -7 -7 -7 -7 -7 -7 -7 -7 -7 -7 -7 -7 -8 -8 -7 -7 -7 -7 -7 -8 -8 -8 -8 -7 -7 -7 -6 -6 -6 -5 -5 -5 -5 -5 -4
-9 -9 -9 -9 -9 -8 -8 -8 -8 -7 -7 -7 -7 -7 -7 -7 -7 -7 -6 -7 -7 -7 -7 -7 -8 -8 -8 -8 -8 -8 -8 -8 -8 -8 -8 -8 -8 -8 -8 -8 -7 -7 -6 -6 -5 -5 -5 -5 -5
-10 -10 -10 -9 -9 -8 -8 -8 -8 -8 -7 -7 -7 -7 -7 -7 -8 -7 -6 -7 -7 -7 -7 -7 -8 -8 -8 -8 -8 -8 -8 -8 -8 -8 -8 -8 -8 -8 -8 -8 -8 -7 -7 -6 -6 -5 -5 -5 -6
-10 -9 -9 -9 -9 -8 -8 -8 -8 -8 -7 -7 -7 -7 -7 -7 -7 -7 -7 -7 -7 -7 -7 -7 -7 -8 -8 -8 -8 -8 -8 -8 -8 -8 -8 -8 -8 -9 -9 -8 -8 -8 -8 -7 -6 -6 -5 -6 -6
-9 -9 -9 -9 -9 -9 -8 -8 -8 -8 -8 -8 -7 -7 -7 -7 -7 -7 -7 -6 -6 -7 -7 -7 -7 -7 -8 -8 -8 -8 -8 -8 -8 -8 -8 -8 -8 -9 -9 -9 -9 -9 -8 -8 -7 -6 -6 -6 -7
-9 -9 -8 -9 -9 -9 -8 -8 -8 -8 -8 -8 -7 -8 -7 -7 -7 -7 -7 -7 -7 -7 -7 -7 -7 -8 -8 -9 -9 -9 -9 -9 -9 -9 -9 -9 -9 -9 -9 -9 -9 -9 -9 -8 -8 -6 -6 -7 -7
-9 -9 -9 -9 -9 -8 -8 -9 -8 -8 -8 -7 -7 -8 -8 -7 -7 -7 -7 -7 -7 -7 -7 -7 -8 -8 -8 -9 -9 -10 -10 -9 -9 -10 -10 -10 -10 -10 -10 -10 -10 -10 -10 -9 -8 -7 -8 -8 -8
-9 -9 -9 -9 -9 -9 -8 -8 -9 -8 -8 -7 -8 -8 -8 -7 -7 -7 -7 -8 -8 -8 -8 -8 -8 -8 -8 -9 -9 -10 -10 -11 -10 -10 -10 -10 -10 -11 -11 -10 -10 -10 -10 -9 -9 -8 -7 -9 -8
-9 -9 -9 -9 -9 -9 -8 -9 -8 -8 -8 -8 -8 -8 -7 -8 -8 -8 -8 -8 -8 -8 -8 -9 -8 -8 -9 -10 -11 -11 -11 -11 -11 -11 -11 -10 -9 -11 -12 -11 -11 -11 -11 -10 -9 -8 -7 -9 -9
-9 -9 -9 -9 -9 -9 -9 -9 -9 -8 -8 -8 -8 -8 -7 -8 -8 -8 -8 -8 -9 -9 -8 -9 -9 -9 -10 -11 -12 -12 -12 -12 -13 -13 -12 -12 -11 -11 -12 -11 -11 -10 -11 -10 -11 -9 -8 -9 -9
-9 -9 -9 -9 -9 -9 -9 -9 -9 -8 -8 -8 -8 -9 -8 -8 -8 -8 -9 -8 -8 -8 -9 -9 -10 -11 -12 -13 -13 -14 -13 -13 -14 -14 -14 -14 -13 -12 -12 -11 -11 -11 -11 -11 -11 -9 -9 -10 -10
-9 -10 -10 -9 -9 -9 -9 -9 -9 -9 -9 -9 -9 -9 -9 -9 -9 -9 -9 -9 -9 -9 -9 -9 -10 -11 -11 -12 -14 -14 -15 -14 -15 -15 -14 -14 -14 -14 -13 -12 -12 -11 -11 -10 -11 -10 -10 -10 -10
-10 -9 -9 -9 -9 -9 -9 -9 -9 -9 -9 -9 -9 -9 -9 -9 -9 -9 -9 -9 -9 -9 -9 -10 -11 -12 -13 -14 -14 -15 -16 -15 -16 -15 -15 -15 -15 -14 -13 -12 -12 -11 -11 -11 -11 -11 -11 -10 -10
-10 -10 -9 -10 -10 -9 -9 -9 -9 -9 -8 -9 -9 -9 -9 -9 -9 -8 -9 -9 -9 -8 -10 -11 -11 -11 -12 -13 -15 -17 -17 -17 -16 -15 -13 -14 -14 -14 -14 -13 -13 -11 -11 -10 -11 -11 -11 -13 -10
-10 -10 -10 -10 -10 -9 -9 -9 -9 -9 -9 -9 -9 -9 -9 -9 -9 -9 -9 -9 -9 -9 -11 -11 -12 -13 -13 -14 -16 -17 -17 -17 -17 -16 -15 -15 -15 -15 -14 -13 -13 -13 -11 -11 -11 -11 -12 -12 -11
-10 -10 -10 -10 -10 -9 -9 -9 -9 -9 -9 -9 -9 -9 -9 -9 -9 -9 -9 -9 -9 -10 -11 -12 -12 -13 -13 -14 -15 -17 -17 -17 -17 -16 -16 -16 -16 -16 -15 -14 -14 -14 -13 -11 -11 -11 -12 -12 -12
-10 -10 -10 -10 -10 -10 -9 -9 -9 -9 -9 -9 -9 -9 -9 -9 -9 -9 -9 -9 -10 -11 -12 -12 -13 -13 -13 -14 -15 -16 -16 -16 -16 -16 -16 -16 -16 -15 -15 -14 -14 -15 -14 -13 -11 -11 -11 -12 -11
-11 -11 -10 -10 -10 -10 -10 -9 -9 -10 -9 -10 -9 -9 -9 -9 -10 -9 -9 -10 -11 -12 -12 -12 -13 -13 -14 -14 -15 -15 -15 -16 -16 -16 -16 -15 -15 -15 -15 -14 -14 -15 -14 -14 -12 -12 -12 -12 -10
-11 -11 -11 -11 -10 -10 -10 -10 -9 -10 -9 -9 -9 -9 -9 -9 -10 -9 -10 -10 -11 -12 -12 -12 -13 -13 -14 -15 -15 -15 -15 -15 -15 -15 -15 -16 -15 -15 -15 -14 -14 -14 -14 -14 -13 -13 -12 -12 -11
-11 -11 -11 -11 -10 -10 -10 -10 -9 -10 -9 -10 -9 -9 -9 -10 -10 -10 -10 -10 -11 -12 -13 -12 -13 -14 -14 -14 -15 -15 -15 -15 -15 -15 -15 -15 -15 -14 -14 -13 -13 -13 -14 -13 -13 -13 -11 -11 -11
-12 -12 -12 -12 -11 -10 -10 -10 -10 -10 -10 -10 -10 -9 -9 -10 -10 -10 -9 -10 -11 -12 -13 -12 -13 -14 -14 -14 -14 -15 -15 -15 -14 -14 -14 -14 -14 -14 -13 -13 -13 -13 -13 -13 -12 -11 -12 -11 -11
-13 -13 -13 -12 -11 -11 -10 -10 -10 -10 -10 -10 -10 -10 -9 -10 -10 -10 -10 -10 -11 -12 -13 -13 -13 -13 -14 -14 -14 -15 -15 -15 -14 -14 -14 -14 -14 -14 -14 -13 -13 -13 -12 -12 -11 -12 -12 -11 -12
-13 -12 -13 -13 -12 -11 -10 -10 -10 -10 -10 -10 -10 -10 -10 -10 -10 -9 -10 -11 -11 -12 -13 -13 -13 -13 -13 -14 -14 -15 -14 -14 -14 -14 -14 -14 -13 -13 -14 -14 -13 -13 -12 -12 -12 -12 -12 -12 -12
-13 -13 -13 -13 -12 -11 -10 -10 -11 -11 -10 -10 -10 -10 -10 -10 -10 -9 -10 -11 -11 -12 -12 -13 -13 -13 -14 -14 -15 -15 -15 -15 -15 -14 -14 -14 -14 -13 -14 -13 -13 -12 -12 -12 -12 -12 -12 -12 -12
-13 -13 -13 -13 -12 -12 -11 -11 -11 -11 -11 -11 -10 -10 -10 -10 -10 -10 -10 -11 -11 -12 -12 -13 -13 -14 -14 -14 -15 -15 -15 -14 -14 -14 -14 -13 -14 -15 -13 -13 -14 -13 -13 -13 -12 -12 -12 -12 -12
-14 -14 -14 -13 -13 -13 -13 -11 -11 -11 -11 -11 -11 -10 -11 -10 -10 -10 -10 -11 -11 -12 -12 -12 -13 -14 -14 -14 -14 -15 -15 -15 -13 -13 -13 -14 -13 -12 -13 -13 -13 -13 -12 -12 -12 -12 -12 -12 -13
Height
5865 5865 5866 5868 5870 5867 5865 5868 5869 5870 5871 5869 5869 5873 5875 5874 5876 5880 5878 5877 5877 5878 5878 5879 5879 5880 5880 5880 5881 5881 5881 5881 5881 5881 5882 5884 5884 5884 5885 5886 5885 5886 5887 5888 5888 5888 5888 5889 5889
5862 5862 5863 5864 5865 5862 5864 5865 5867 5868 5866 5867 5867 5870 5873 5873 5872 5874 5875 5875 5875 5876 5876 5876 5877 5877 5877 5877 5878 5878 5879 5878 5878 5878 5879 5880 5881 5882 5883 5882 5884 5883 5884 5886 5887 5887 5887 5887 5887
5859 5859 5860 5860 5860 5857 5861 5863 5864 5863 5864 5865 5865 5868 5870 5871 5870 5871 5873 5874 5872 5873 5873 5874 5874 5874 5874 5874 5874 5874 5875 5875 5875 5875 5875 5876 5877 5878 5878 5880 5880 5881 5882 5883 5884 5885 5885 5885 5886
5856 5856 5858 5857 5855 5854 5859 5860 5860 5861 5862 5862 5860 5863 5867 5868 5868 5867 5870 5871 5871 5870 5870 5870 5870 5870 5869 5869 5870 5870 5870 5870 5871 5871 5871 5872 5873 5873 5874 5875 5877 5877 5878 5879 5880 5882 5882 5883 5884
5851 5853 5854 5854 5853 5851 5856 5858 5857 5857 5859 5858 5858 5861 5863 5865 5865 5865 5866 5867 5866 5866 5866 5865 5864 5863 5864 5865 5866 5866 5866 5865 5865 5866 5867 5868 5869 5869 5869 5871 5872 5872 5874 5875 5876 5878 5879 5880 5881
5845 5847 5849 5849 5850 5849 5853 5854 5856 5855 5856 5856 5854 5858 5860 5860 5860 5861 5862 5863 5862 5861 5861 5860 5859 5859 5860 5860 5861 5861 5860 5860 5860 5860 5860 5862 5863 5864 5864 5865 5867 5867 5869 5870 5872 5873 5875 5877 5879
5842 5842 5844 5845 5846 5846 5850 5851 5852 5851 5853 5853 5850 5855 5857 5856 5855 5855 5858 5859 5859 5857 5856 5857 5855 5856 5856 5856 5855 5855 5854 5854 5855 5855 5854 5854 5856 5858 5859 5860 5861 5863 5863 5865 5866 5869 5870 5874 5877
5839 5839 5840 5841 5843 5844 5846 5847 5847 5847 5850 5850 5846 5851 5851 5852 5852 5852 5852 5852 5854 5853 5852 5852 5852 5851 5850 5849 5849 5848 5848 5848 5847 5848 5849 5849 5849 5851 5853 5854 5856 5857 5858 5859 5860 5863 5866 5869 5873
5836 5836 5836 5837 5838 5839 5840 5841 5843 5844 5846 5846 5843 5845 5847 5847 5849 5849 5847 5845 5845 5848 5847 5847 5845 5844 5842 5842 5841 5840 5840 5840 5838 5840 5842 5843 5843 5843 5846 5848 5850 5851 5853 5853 5855 5857 5860 5865 5867
5832 5832 5833 5833 5833 5834 5835 5837 5838 5841 5842 5841 5840 5841 5841 5842 5844 5845 5843 5840 5838 5838 5840 5838 5838 5837 5835 5833 5831 5830 5829 5829 5829 5831 5833 5834 5834 5835 5837 5839 5842 5844 5846 5848 5848 5852 5855 5859 5862
5829 5829 5829 5829 5829 5829 5832 5833 5834 5837 5837 5835 5835 5837 5837 5837 5837 5837 5837 5835 5832 5830 5830 5831 5828 5826 5825 5823 5820 5819 5818 5819 5820 5822 5822 5823 5824 5825 5827 5830 5833 5835 5838 5841 5841 5845 5852 5855 5858
5825 5825 5825 5825 5826 5827 5828 5829 5831 5833 5830 5830 5832 5832 5832 5831 5831 5829 5829 5830 5827 5823 5820 5819 5819 5817 5814 5811 5809 5807 5807 5807 5809 5811 5812 5813 5812 5813 5816 5820 5823 5826 5828 5832 5835 5837 5846 5850 5854
5820 5821 5821 5823 5823 5823 5826 5825 5826 5825 5826 5827 5826 5826 5826 5826 5825 5823 5821 5819 5820 5819 5814 5809 5806 5804 5802 5798 5796 5795 5793 5795 5796 5798 5801 5805 5790 5801 5804 5809 5811 5816 5820 5825 5826 5831 5839 5843 5849
5817 5818 5818 5819 5819 5819 5820 5820 5821 5819 5822 5823 5821 5819 5819 5819 5818 5817 5816 5812 5809 5806 5805 5803 5797 5790 5786 5782 5781 5781 5779 5781 5782 5785 5789 5792 5788 5792 5790 5798 5805 5804 5811 5817 5821 5824 5833 5837 5842
5813 5814 5813 5813 5814 5815 5816 5817 5815 5816 5817 5815 5816 5814 5812 5811 5810 5809 5807 5802 5800 5798 5795 5791 5785 5779 5774 5769 5767 5766 5764 5767 5768 5773 5776 5777 5781 5781 5786 5793 5797 5802 5805 5810 5813 5816 5826 5831 5836
5809 5809 5808 5808 5809 5809 5811 5813 5810 5811 5810 5810 5809 5808 5807 5805 5806 5803 5799 5795 5792 5788 5782 5775 5768 5764 5761 5756 5753 5751 5749 5753 5755 5760 5765 5768 5771 5774 5779 5787 5791 5793 5799 5803 5803 5808 5817 5824 5829
5802 5803 5803 5803 5805 5805 5806 5809 5802 5804 5804 5804 5803 5801 5800 5800 5798 5796 5793 5790 5786 5781 5774 5767 5761 5755 5747 5739 5736 5734 5735 5736 5742 5749 5753 5759 5763 5767 5775 5780 5783 5785 5791 5795 5796 5803 5809 5816 5822
5797 5798 5798 5798 5797 5798 5800 5803 5798 5798 5799 5799 5796 5794 5795 5792 5789 5787 5785 5782 5776 5770 5763 5756 5748 5742 5736 5728 5719 5716 5717 5722 5732 5742 5742 5749 5755 5760 5765 5772 5778 5777 5784 5788 5792 5795 5801 5807 5816
5790 5792 5793 5792 5790 5792 5794 5797 5795 5792 5791 5791 5789 5787 5787 5784 5781 5780 5777 5772 5765 5757 5750 5744 5738 5730 5723 5716 5707 5699 5703 5712 5724 5731 5732 5741 5749 5754 5759 5766 5772 5771 5779 5784 5787 5792 5799 5805 5811
5784 5785 5787 5786 5784 5785 5787 5789 5789 5785 5786 5784 5783 5782 5780 5777 5775 5772 5768 5764 5756 5749 5743 5737 5731 5725 5718 5710 5702 5698 5702 5710 5718 5726 5731 5738 5743 5749 5754 5758 5766 5765 5770 5779 5784 5789 5795 5799 5805
5778 5778 5778 5780 5778 5777 5777 5782 5782 5778 5778 5778 5777 5776 5774 5772 5770 5767 5763 5757 5752 5746 5740 5734 5727 5721 5715 5709 5703 5703 5706 5712 5718 5723 5729 5735 5739 5745 5750 5753 5759 5763 5767 5773 5779 5785 5790 5796 5801
5771 5769 5771 5773 5773 5773 5771 5773 5778 5772 5773 5772 5771 5770 5768 5767 5764 5761 5757 5752 5747 5742 5736 5730 5725 5718 5713 5709 5705 5704 5706 5712 5717 5722 5726 5731 5735 5740 5745 5750 5753 5759 5765 5769 5774 5780 5784 5790 5795
5765 5761 5762 5764 5765 5766 5768 5764 5773 5769 5767 5767 5766 5764 5763 5762 5759 5756 5751 5749 5744 5739 5734 5729 5722 5716 5712 5710 5708 5707 5708 5711 5717 5722 5725 5726 5731 5737 5741 5747 5752 5755 5761 5765 5769 5775 5781 5784 5788
5754 5755 5755 5755 5756 5759 5761 5759 5768 5763 5763 5762 5760 5758 5757 5756 5754 5751 5749 5745 5741 5735 5731 5726 5720 5715 5712 5710 5709 5709 5710 5712 5715 5720 5723 5724 5728 5733 5737 5742 5747 5752 5756 5761 5765 5772 5775 5780 5784
5745 5747 5745 5746 5748 5752 5753 5754 5760 5758 5757 5757 5756 5753 5752 5752 5750 5749 5746 5741 5737 5731 5727 5724 5719 5713 5712 5710 5709 5709 5710 5711 5713 5716 5718 5722 5725 5728 5733 5738 5741 5746 5752 5758 5763 5768 5772 5776 5780
5735 5735 5735 5737 5739 5744 5746 5747 5754 5753 5753 5753 5752 5750 5749 5748 5746 5745 5742 5738 5733 5727 5724 5723 5719 5713 5710 5709 5709 5709 5708 5709 5709 5711 5713 5716 5720 5725 5728 5733 5737 5740 5745 5752 5757 5764 5767 5772 5775
5726 5725 5734 5727 5728 5732 5739 5743 5746 5748 5748 5748 5748 5747 5746 5745 5742 5741 5739 5735 5730 5724 5721 5721 5718 5715 5710 5708 5707 5706 5705 5705 5704 5704 5705 5709 5713 5719 5724 5728 5733 5737 5744 5748 5755 5760 5764 5766 5769
5712 5720 5719 5719 5720 5723 5731 5735 5739 5741 5742 5742 5742 5742 5742 5741 5738 5737 5735 5733 5728 5723 5720 5719 5717 5714 5711 5708 5706 5704 5702 5701 5699 5697 5697 5701 5707 5714 5718 5725 5729 5730 5739 5747 5750 5756 5758 5761 5763
5704 5706 5710 5714 5712 5715 5721 5729 5733 5735 5736 5736 5736 5736 5737 5736 5734 5733 5732 5731 5728 5723 5719 5718 5717 5714 5712 5708 5706 5704 5702 5700 5696 5696 5694 5696 5703 5710 5715 5722 5726 5733 5738 5742 5747 5750 5754 5756 5758
5690 5694 5697 5699 5704 5708 5712 5721 5727 5729 5730 5731 5731 5730 5731 5731 5730 5730 5729 5728 5726 5722 5719 5718 5716 5714 5712 5710 5707 5705 5703 5701 5699 5699 5699 5701 5703 5708 5715 5721 5726 5731 5736 5740 5744 5746 5748 5750 5752
Wind_Speed
18 18 18 19 18 21 22 19 18 18 17 19 19 13 11 11 7 7 8 10 9 8 7 7 8 9 10 12 14 15 17 18 19 17 17 17 17 19 20 20 18 17 16 13 11 10 10 9 8
19 19 19 19 19 23 21 18 14 17 20 18 18 12 11 11 10 10 9 8 8 9 10 10 11 12 14 15 15 16 18 19 20 21 20 19 20 19 20 21 20 19 18 15 15 13 13 12 11
19 21 20 18 20 23 19 15 16 21 19 17 17 13 13 13 14 11 8 10 10 12 12 14 14 15 16 17 20 21 21 21 23 23 24 24 23 22 21 23 21 22 21 19 18 16 16 15 13
15 14 19 19 22 22 19 16 18 22 20 18 19 15 13 13 13 13 11 12 13 14 15 16 18 18 19 21 21 22 25 25 25 26 27 26 26 26 24 24 25 25 24 23 21 19 19 18 16
29 22 21 20 24 25 23 18 21 23 20 19 19 17 14 14 16 14 16 14 13 16 17 20 22 23 23 22 24 23 24 26 26 28 29 30 30 29 28 27 27 27 27 26 25 23 22 21 19
28 31 23 26 29 28 20 18 20 22 20 19 21 17 15 17 16 19 19 16 15 18 20 23 23 24 25 26 27 27 27 25 27 30 32 32 33 33 32 30 30 29 29 29 29 27 25 22 20
21 16 22 26 27 26 19 18 21 24 20 20 23 18 15 17 18 23 22 18 16 20 22 25 27 28 29 30 32 31 31 30 30 30 32 35 35 37 36 34 33 32 32 32 31 30 28 24 20
17 16 20 22 23 22 19 19 21 24 19 19 23 17 16 21 21 25 24 23 20 22 24 28 31 33 33 36 36 36 36 36 35 34 34 36 37 38 40 39 37 35 34 33 34 32 31 26 21
18 18 19 20 21 22 19 20 23 22 20 20 21 21 20 21 22 24 25 26 26 26 29 32 34 36 36 38 40 39 36 38 40 37 37 36 38 39 40 42 41 38 37 34 35 34 33 26 23
23 24 20 19 19 18 20 20 23 20 23 21 20 20 21 24 24 22 23 24 29 31 32 35 36 37 38 38 40 41 42 42 43 41 38 39 41 43 42 44 44 42 40 37 37 37 33 25 24
19 21 23 21 19 20 23 21 23 21 23 19 17 19 22 25 22 23 22 23 28 33 35 35 37 39 40 42 44 45 45 44 46 41 39 40 43 45 44 47 44 44 43 42 41 38 33 27 23
19 19 17 19 20 23 23 22 24 22 22 20 19 21 21 23 23 24 24 23 27 33 37 38 39 42 46 48 50 50 49 48 46 45 45 40 46 47 48 45 50 48 46 45 45 41 35 29 24
20 18 17 20 21 24 22 22 20 22 23 21 21 24 23 23 23 23 26 29 29 31 35 40 45 47 50 52 51 50 52 50 49 46 42 35 42 46 56 52 47 54 48 46 49 44 37 32 24
18 19 20 20 23 22 23 22 20 25 22 23 22 27 25 24 23 24 26 28 32 35 38 41 47 51 50 49 48 47 50 50 50 48 45 48 38 29 49 53 48 49 51 52 42 43 39 33 26
19 17 20 24 23 23 23 21 26 25 25 26 23 25 26 25 23 25 26 33 35 37 41 45 46 44 43 45 46 45 49 49 50 49 48 53 58 48 34 43 46 36 42 48 46 48 44 37 30
20 19 20 22 21 24 22 21 27 25 26 26 26 25 24 24 22 25 29 32 35 40 44 48 45 42 44 47 49 50 51 49 50 48 49 52 51 57 48 38 40 56 38 36 36 46 45 40 34
22 20 20 20 21 23 23 21 30 27 28 28 28 26 23 22 24 26 27 30 34 39 44 41 37 38 40 43 44 44 47 52 47 43 44 48 50 52 41 48 45 45 47 43 43 51 42 42 37
23 21 22 20 23 23 23 19 28 31 30 27 25 25 21 22 26 26 28 31 35 41 43 35 37 38 39 45 44 43 40 48 45 43 34 39 44 49 48 37 40 41 37 34 39 34 37 43 39
23 21 22 25 27 26 23 20 22 27 28 25 24 24 20 23 25 26 29 31 38 43 39 34 35 38 35 30 28 31 32 39 40 42 41 25 33 35 38 44 33 32 34 27 30 33 36 37 35
26 25 23 25 29 29 24 21 20 25 24 26 24 21 20 23 23 26 28 31 38 41 32 33 32 30 25 18 15 11 21 29 34 37 36 35 33 28 30 32 27 24 19 27 28 26 35 33 31
27 27 27 26 28 29 27 19 20 23 24 24 23 19 21 22 22 24 25 30 36 32 26 29 27 21 16 11 6 2 11 19 27 30 27 29 28 27 29 29 24 19 21 18 24 23 18 19 19
29 31 31 29 28 27 29 23 15 25 19 18 19 18 22 19 21 21 24 30 34 26 23 25 22 16 9 6 3 4 7 11 18 22 25 26 27 27 28 29 22 23 22 14 24 18 10 7 9
27 32 31 29 30 28 25 29 9 17 19 18 17 21 20 19 20 19 23 29 30 19 17 19 19 12 7 5 4 5 8 11 13 18 20 22 26 28 28 25 18 22 27 15 13 12 13 9 15
30 31 32 33 32 29 25 28 12 19 17 17 17 20 19 18 18 17 23 27 27 16 14 15 18 10 6 5 5 6 9 8 11 14 17 22 30 30 32 30 28 28 27 21 18 19 22 20 20
32 30 33 35 33 29 29 29 15 19 18 16 17 20 18 17 16 16 21 25 26 16 10 10 16 9 3 3 6 8 10 12 13 16 18 21 30 33 34 33 31 32 34 24 24 23 21 22 28
30 34 37 35 36 32 31 29 18 19 19 18 18 21 18 16 14 15 19 23 25 17 8 6 10 7 8 8 7 10 13 15 17 20 24 25 29 34 36 36 35 38 32 29 34 22 23 27 33
38 38 31 39 41 39 32 26 22 21 19 17 17 20 17 16 12 14 17 21 22 17 10 7 6 5 3 8 8 12 15 16 17 21 26 30 31 33 34 33 32 27 26 27 38 24 27 30 33
50 41 41 42 43 42 34 28 22 21 18 15 16 19 17 15 10 12 15 19 20 16 13 6 7 4 5 2 3 2 2 2 4 6 8 22 33 32 34 30 34 19 27 34 30 28 25 30 30
46 48 46 43 44 41 38 31 25 22 19 17 15 19 16 14 11 11 14 16 18 14 12 7 7 6 4 5 4 3 4 3 12 5 2 10 17 19 22 27 31 23 25 25 27 28 24 26 23
50 48 45 47 46 41 39 38 30 24 21 18 17 19 16 14 11 11 14 14 16 13 11 9 5 4 4 3 4 6 3 7 8 11 15 9 7 12 16 27 28 26 28 23 21 27 27 20 19
Wind_Direction
258 257 257 251 245 242 245 241 237 234 230 228 234 227 226 237 235 221 219 223 240 253 255 271 284 285 282 280 280 279 275 271 272 271 271 273 270 263 263 261 251 252 253 256 255 259 254 260 263
267 261 253 249 243 243 245 243 239 228 221 219 227 202 216 237 242 226 216 223 242 259 267 274 283 291 297 296 291 284 280 278 272 268 268 266 268 266 261 257 258 247 247 251 255 256 256 257 260
268 267 262 249 240 243 241 233 216 212 217 212 226 212 206 222 236 238 234 247 258 269 277 283 286 287 286 295 299 297 292 285 278 272 266 263 261 262 259 259 253 254 247 244 249 256 256 254 259
269 266 259 247 236 243 235 223 218 216 216 214 224 222 211 211 235 246 250 265 274 278 281 286 291 293 291 291 292 295 295 291 284 277 269 262 259 257 256 254 254 250 250 246 246 248 255 255 256
263 262 263 256 238 249 244 223 214 222 218 225 224 222 218 222 227 244 257 263 277 283 293 298 299 299 296 297 295 295 296 292 293 284 273 265 258 255 254 254 251 251 249 249 246 245 248 251 253
265 270 254 244 247 244 237 232 230 231 222 224 234 227 221 232 243 243 248 262 276 287 294 300 294 297 299 296 300 296 299 288 295 291 284 271 261 254 251 250 251 248 248 248 247 245 246 246 247
260 243 236 237 240 246 245 229 229 235 231 227 239 236 229 237 248 256 255 261 273 283 288 292 292 292 292 291 294 297 295 291 292 291 287 278 264 256 250 247 247 248 246 246 246 245 244 244 243
236 239 240 243 251 255 254 235 236 238 234 232 246 250 245 242 251 258 264 268 273 279 283 289 289 289 290 291 291 290 289 288 287 286 285 281 272 257 252 246 245 246 246 245 244 244 245 241 239
234 244 255 255 257 258 246 230 236 237 238 240 247 254 252 255 258 265 274 276 279 281 284 284 287 286 287 286 285 284 283 281 282 280 282 275 270 263 251 249 245 243 244 245 244 242 242 239 239
249 251 249 263 257 245 235 231 233 239 243 240 248 260 261 260 263 268 274 283 287 287 287 287 286 284 283 282 280 279 279 279 279 280 273 269 264 262 252 244 244 242 241 241 244 240 239 238 235
255 252 247 253 241 235 232 231 236 234 246 252 254 252 259 264 268 275 281 288 289 290 291 288 286 284 283 281 278 275 272 271 276 272 266 261 258 254 249 240 239 239 240 239 240 241 239 237 232
262 256 251 246 243 237 234 229 233 246 251 255 258 259 259 266 272 280 286 282 289 293 291 289 285 282 280 277 275 273 271 269 262 262 262 263 256 247 240 243 235 236 236 237 239 240 237 237 229
264 264 257 246 242 240 233 240 245 252 254 264 263 265 265 269 275 284 289 295 293 285 285 285 286 285 283 281 278 274 273 266 263 256 252 265 242 254 239 233 228 234 233 234 234 235 233 232 227
256 261 256 255 251 240 242 246 250 255 262 263 266 271 271 275 284 289 295 293 288 289 289 287 287 290 289 282 277 272 266 262 256 250 242 224 247 245 237 234 245 232 228 229 231 231 230 230 219
257 252 254 252 247 245 243 252 254 260 262 267 265 269 276 282 291 297 296 288 293 292 290 292 295 292 286 280 276 267 260 256 256 251 241 236 239 247 247 236 235 240 220 227 227 230 230 227 220
261 256 252 254 254 249 247 251 259 263 268 268 272 272 279 284 291 286 287 293 293 293 299 305 302 298 294 286 276 266 257 251 249 246 241 240 243 246 258 243 248 244 229 219 225 231 226 221 220
262 260 260 264 260 260 258 255 267 267 267 269 274 280 282 284 279 280 288 289 291 298 305 303 296 297 292 287 280 270 255 245 240 239 237 237 238 240 244 241 251 246 222 211 216 225 224 217 215
264 264 264 260 262 260 263 259 264 268 266 268 274 277 282 282 285 294 293 295 302 308 312 306 308 305 297 295 286 271 249 238 234 232 232 235 233 237 244 243 248 226 222 215 207 212 216 212 216
261 265 265 266 263 260 259 255 259 270 276 282 282 278 280 280 288 294 297 307 312 318 317 317 313 310 306 298 295 274 233 225 225 225 225 229 230 236 242 241 247 255 204 191 210 213 200 206 212
260 261 263 262 265 265 262 252 260 272 279 278 278 281 277 280 291 295 303 314 321 321 318 317 313 312 309 313 326 279 219 214 219 224 228 232 241 240 236 238 239 255 227 199 201 217 201 199 219
259 260 259 262 270 276 271 265 275 279 279 280 277 276 276 283 289 295 308 318 322 321 318 316 311 316 320 337 354 260 201 211 216 214 218 221 230 229 223 226 221 223 236 200 204 203 210 204 224
256 259 259 260 262 263 276 276 278 277 281 276 277 276 273 284 288 298 315 320 326 322 326 317 313 321 323 323 337 179 177 198 194 201 214 224 230 219 214 221 222 210 212 230 198 222 213 236 231
253 257 261 262 261 261 271 273 248 280 287 283 271 270 280 286 291 306 320 318 327 323 331 332 315 316 331 311 281 216 184 192 204 211 218 226 218 208 206 206 217 215 204 196 190 185 221 240 238
249 254 257 257 259 258 262 269 268 283 285 278 274 277 285 289 294 312 310 317 328 327 324 329 316 321 314 285 261 220 207 214 228 227 225 219 209 206 205 207 207 210 195 200 204 212 220 228 236
248 251 255 256 258 261 256 260 264 273 284 281 279 278 282 284 292 302 306 320 328 340 327 338 328 296 287 261 222 218 216 225 234 234 228 224 214 205 207 209 208 207 203 192 207 215 216 238 235
245 244 246 255 257 256 259 261 262 268 275 279 277 271 274 275 286 300 306 321 328 350 341 330 343 324 229 241 231 229 233 232 230 230 229 227 217 214 213 212 214 215 217 208 208 225 251 240 247
242 244 245 249 253 255 253 259 258 266 270 275 272 268 269 267 279 300 306 321 329 350 356 314 304 318 282 237 232 234 242 248 249 247 232 225 220 215 224 229 221 193 191 219 223 229 234 250 256
245 241 241 242 248 253 256 254 256 260 267 272 269 270 271 271 284 297 308 317 328 350 5 316 318 324 320 32 99 235 201 204 73 225 224 222 218 223 229 230 212 198 218 214 227 239 244 247 255
240 244 244 248 249 249 253 252 249 250 261 266 261 269 273 276 284 297 303 310 323 348 8 355 312 316 308 310 315 36 35 27 46 82 356 222 195 199 221 220 221 197 202 206 223 238 247 250 246
241 237 238 238 242 247 252 244 244 248 252 255 256 266 273 273 279 289 293 302 316 345 5 12 14 339 309 290 287 278 176 75 74 124 138 164 193 196 202 213 205 207 211 217 233 240 252 247 256